マクノート-ヒューズ彗星

130P/McNaught-Hughes (2004)

English version
Home page
Updated on January 15, 2005

---------------------------------------------------------------------

・ プロフィール

・ 軌道要素

Epoch 2004 Nov. 11.0 TT = JDT 2453320.5
T 2004 Oct. 23.2861 TT                                  Nakano
q   2.104250             (2000.0)            P               Q
n   0.1478630      Peri.  224.1202      +0.6890912      +0.7134264
a   3.541846       Node    89.8867      -0.6246744      +0.6737451
e   0.405889       Incl.    7.3070      -0.3673352      +0.1925884
P   6.67
From 91 observations 1991-1999, mean residual 0".5.

・ 星図

・ 光度変化

        m1 = 11.5 + 5 logΔ + 15 log r

---------------------------------------------------------------------

軌道要素はMPCのEphemerides and Orbital Elementsに掲載されたものです。
星図は StellaNavigator Ver.2.0 for Windows (アストロアーツ 編著 / アスキー出版局刊) で作成したものです。
光度グラフはComet for Windowsで作成したものです。

---------------------------------------------------------------------

Copyright(C) Seiichi Yoshida (comet@aerith.net). All rights reserved.